Location: Franzen
(48.6167°N, 15.3833°E)
Time: 06:17:22
(UTC+00:00)

Cosmos 1709 Rocket - Visible Passes

Search period start: 29 July 2021 00:00
Search period end: 08 August 2021 00:00
Orbit: 949 x 1000 km, 82.9° (Epoch: 28 July)

Date Brightness Start Highest point End Pass type
(mag) Time Alt. Az. Time Alt. Az. Time Alt. Az.
29 Jul 5.7 01:19:29 13° WSW 01:23:14 21° WNW 01:27:57 10° NNW visible
29 Jul 5.4 22:15:19 21° ESE 22:17:30 25° E 22:22:30 10° NNE visible
29 Jul 4.2 23:59:58 39° SW 00:02:20 63° WNW 00:08:42 10° N visible
30 Jul 6.1 01:46:22 10° W 01:49:08 13° NW 01:51:56 10° NNW visible
30 Jul 4.7 22:40:26 33° SE 22:42:22 41° E 22:48:17 10° NNE visible
31 Jul 4.9 00:25:05 27° WSW 00:27:47 38° WNW 00:33:43 10° N visible
31 Jul 6.1 21:20:54 10° E 21:23:17 12° ENE 21:25:41 10° NE visible
31 Jul 4.1 23:05:33 47° SSE 23:07:25 70° E 23:13:46 10° NNE visible
01 Aug 5.5 00:50:12 17° WSW 00:53:25 24° WNW 00:58:30 10° NNW visible
01 Aug 5.5 21:46:00 19° ESE 21:47:57 22° E 21:52:35 10° NNE visible
01 Aug 4.1 23:30:39 46° SSW 23:32:38 73° W 23:39:03 10° N visible
02 Aug 6.1 01:15:47 10° W 01:19:16 15° WNW 01:22:46 10° NNW visible
02 Aug 4.9 22:11:06 31° ESE 22:12:47 36° E 22:18:30 10° NNE visible
02 Aug 4.7 23:55:45 32° WSW 23:58:02 44° WNW 00:04:09 10° N visible
03 Aug 6.1 20:52:58 10° E 20:53:48 10° ENE 20:54:39 10° ENE visible
03 Aug 4.2 22:36:11 47° SE 22:37:47 60° E 22:44:03 10° NNE visible
04 Aug 5.4 00:20:50 20° WSW 00:23:37 27° WNW 00:28:59 10° N visible
04 Aug 5.6 21:16:36 17° E 21:18:25 19° E 21:22:37 10° NE visible
04 Aug 4.0 23:01:15 52° SSW 23:02:58 83° W 23:09:24 10° N visible
05 Aug 6.0 00:45:54 11° W 00:49:23 17° WNW 00:53:28 10° NNW visible
05 Aug 5.0 21:41:40 28° ESE 21:43:12 31° E 21:48:42 10° NNE visible
05 Aug 4.5 23:26:19 38° WSW 23:28:18 51° WNW 23:34:32 10° N visible
06 Aug 6.4 01:14:35 10° WNW 01:15:24 10° NW 01:16:11 10° NW visible
06 Aug 4.3 22:06:43 44° SE 22:08:09 52° E 22:14:20 10° NNE visible
06 Aug 5.3 23:51:22 24° WSW 23:53:50 31° WNW 23:59:27 10° N visible
07 Aug 5.7 20:47:07 14° E 20:48:54 16° ENE 20:52:33 10° NE visible
07 Aug 3.9 22:31:46 56° S 22:33:18 86° E 22:39:43 10° N visible
